owner,sensor,date,latitude,longitude,vertical_datum,wind_speed,wind_to_direction,wind_speed_of_gust,qcFlag 
LOOP,urn:ioos:station:wmo:lopl1:1,2017-03-01T00:03:00Z,28.8850,-90.0250,10.0,8.2,168.0,9.4,'11111222,11111222,11111222' 
LOOP,urn:ioos:station:wmo:lopl1:1,2017-03-01T01:03:00Z,28.8850,-90.0250,10.0,9.2,174.0,11.1,'11111222,11111222,11111222' 
LOOP,urn:ioos:station:wmo:lopl1:1,2017-03-01T02:03:00Z,28.8850,-90.0250,10.0,5.6,-9999.0,9.0,'11111222,99999999,11111222' 
LOOP,urn:ioos:station:wmo:lopl1:1,2017-03-01T03:03:00Z,28.8850,-90.0250,10.0,6.2,165.0,8.5,'11111222,11111222,11111222' 
LOOP,urn:ioos:station:wmo:lopl1:1,2017-03-01T04:04:00Z,28.8850,-90.0250,10.0,4.5,167.0,7.1,'11111222,11111222,11111222' 
LOOP,urn:ioos:station:wmo:lopl1:1,2017-03-01T05:04:00Z,28.8850,-90.0250,10.0,5.2,168.0,7.2,'11111222,11111222,11111222' 
LOOP,urn:ioos:station:wmo:lopl1:1,2017-03-01T06:09:00Z,28.8850,-90.0250,10.0,4.1,-9999.0,7.0,'11111222,99999999,11111222' 
LOOP,urn:ioos:station:wmo:lopl1:1,2017-03-01T07:09:00Z,28.8850,-90.0250,10.0,4.6,-9999.0,6.9,'11111222,99999999,11111222' 
LOOP,urn:ioos:station:wmo:lopl1:1,2017-03-01T08:09:00Z,28.8850,-90.0250,10.0,5.6,176.0,8.6,'11111222,11111222,11111222' 
LOOP,urn:ioos:station:wmo:lopl1:1,2017-03-01T09:09:00Z,28.8850,-90.0250,10.0,6.7,170.0,10.2,'11111222,11111222,11111222' 
LOOP,urn:ioos:station:wmo:lopl1:1,2017-03-01T10:09:00Z,28.8850,-90.0250,10.0,7.2,-9999.0,10.0,'11111222,99999999,11111222' 
LOOP,urn:ioos:station:wmo:lopl1:1,2017-03-01T11:09:00Z,28.8850,-90.0250,10.0,9.0,-9999.0,11.5,'11111222,99999999,11111222' 
LOOP,urn:ioos:station:wmo:lopl1:1,2017-03-01T12:09:00Z,28.8850,-90.0250,10.0,7.4,-9999.0,10.4,'11111222,99999999,11111222' 
LOOP,urn:ioos:station:wmo:lopl1:1,2017-03-01T13:09:00Z,28.8850,-90.0250,10.0,7.7,-9999.0,9.1,'11111222,99999999,11111222' 
LOOP,urn:ioos:station:wmo:lopl1:1,2017-03-01T14:09:00Z,28.8850,-90.0250,10.0,6.7,-9999.0,9.0,'11111222,99999999,11111222' 
LOOP,urn:ioos:station:wmo:lopl1:1,2017-03-01T15:09:00Z,28.8850,-90.0250,10.0,6.6,-9999.0,8.8,'11111222,99999999,11111222' 
LOOP,urn:ioos:station:wmo:lopl1:1,2017-03-01T16:09:00Z,28.8850,-90.0250,10.0,5.6,-9999.0,7.3,'11111222,99999999,11111222' 
LOOP,urn:ioos:station:wmo:lopl1:1,2017-03-01T17:09:00Z,28.8850,-90.0250,10.0,5.1,-9999.0,5.4,'11111222,99999999,11111222' 
LOOP,urn:ioos:station:wmo:lopl1:1,2017-03-01T18:09:00Z,28.8850,-90.0250,10.0,4.9,-9999.0,5.6,'11111222,99999999,11111222' 
LOOP,urn:ioos:station:wmo:lopl1:1,2017-03-01T19:14:00Z,28.8850,-90.0250,10.0,4.0,314.0,5.6,'11111222,11111222,11111222' 
LOOP,urn:ioos:station:wmo:lopl1:1,2017-03-01T20:14:00Z,28.8850,-90.0250,10.0,2.0,279.0,3.0,'11111222,11111222,11111222' 
LOOP,urn:ioos:station:wmo:lopl1:1,2017-03-01T21:14:00Z,28.8850,-90.0250,10.0,4.1,-9999.0,5.4,'11111222,99999999,11111222' 
LOOP,urn:ioos:station:wmo:lopl1:1,2017-03-01T22:14:00Z,28.8850,-90.0250,10.0,5.8,-9999.0,6.2,'11111222,99999999,11111222' 
LOOP,urn:ioos:station:wmo:lopl1:1,2017-03-01T23:14:00Z,28.8850,-90.0250,10.0,6.3,-9999.0,6.9,'11111222,99999999,11111222' 
LOOP,urn:ioos:station:wmo:lopl1:1,2017-03-02T00:14:00Z,28.8850,-90.0250,10.0,7.0,-9999.0,7.6,'11111222,99999999,11111222' 
LOOP,urn:ioos:station:wmo:lopl1:1,2017-03-02T01:14:00Z,28.8850,-90.0250,10.0,6.4,-9999.0,6.7,'11111222,99999999,11111222' 
LOOP,urn:ioos:station:wmo:lopl1:1,2017-03-02T02:14:00Z,28.8850,-90.0250,10.0,6.5,-9999.0,7.0,'11111222,99999999,11111222' 
LOOP,urn:ioos:station:wmo:lopl1:1,2017-03-02T03:14:00Z,28.8850,-90.0250,10.0,4.1,-9999.0,5.9,'11111222,99999999,11111222' 
LOOP,urn:ioos:station:wmo:lopl1:1,2017-03-02T04:14:00Z,28.8850,-90.0250,10.0,4.2,-9999.0,5.7,'11111222,99999999,11111222' 
LOOP,urn:ioos:station:wmo:lopl1:1,2017-03-02T05:14:00Z,28.8850,-90.0250,10.0,4.1,295.0,6.2,'11111222,11111222,11111222' 
LOOP,urn:ioos:station:wmo:lopl1:1,2017-03-02T06:14:00Z,28.8850,-90.0250,10.0,13.5,18.0,17.1,'11111222,11111222,11111222' 
LOOP,urn:ioos:station:wmo:lopl1:1,2017-03-02T07:19:00Z,28.8850,-90.0250,10.0,14.9,19.0,18.0,'11111222,11111222,11111222' 
LOOP,urn:ioos:station:wmo:lopl1:1,2017-03-02T08:19:00Z,28.8850,-90.0250,10.0,14.7,12.0,17.5,'11111222,11111222,11111222' 
LOOP,urn:ioos:station:wmo:lopl1:1,2017-03-02T08:34:00Z,28.8850,-90.0250,10.0,14.5,19.0,17.7,'11111222,11111222,11111222' 
LOOP,urn:ioos:station:wmo:lopl1:1,2017-03-02T09:34:00Z,28.8850,-90.0250,10.0,13.7,25.0,17.2,'11111222,11111222,11111222' 
LOOP,urn:ioos:station:wmo:lopl1:1,2017-03-02T10:34:00Z,28.8850,-90.0250,10.0,14.6,22.0,17.4,'11111222,11111222,11111222' 
LOOP,urn:ioos:station:wmo:lopl1:1,2017-03-02T11:34:00Z,28.8850,-90.0250,10.0,14.0,9.0,16.3,'11111222,11111222,11111222' 
LOOP,urn:ioos:station:wmo:lopl1:1,2017-03-02T12:34:00Z,28.8850,-90.0250,10.0,15.3,14.0,17.8,'11111222,11111222,11111222' 
LOOP,urn:ioos:station:wmo:lopl1:1,2017-03-02T12:49:00Z,28.8850,-90.0250,10.0,14.6,10.0,17.3,'11111222,11111222,11111222' 
LOOP,urn:ioos:station:wmo:lopl1:1,2017-03-02T13:49:00Z,28.8850,-90.0250,10.0,15.4,14.0,17.6,'11111222,11111222,11111222' 
LOOP,urn:ioos:station:wmo:lopl1:1,2017-03-02T14:49:00Z,28.8850,-90.0250,10.0,15.4,22.0,18.4,'11111222,11111222,11111222' 
LOOP,urn:ioos:station:wmo:lopl1:1,2017-03-02T15:49:00Z,28.8850,-90.0250,10.0,15.3,17.0,17.5,'11111222,11111222,11111222' 
LOOP,urn:ioos:station:wmo:lopl1:1,2017-03-02T16:49:00Z,28.8850,-90.0250,10.0,16.3,23.0,18.8,'11111222,11111222,11111222' 
LOOP,urn:ioos:station:wmo:lopl1:1,2017-03-02T17:54:00Z,28.8850,-90.0250,10.0,13.3,21.0,16.0,'11111222,11111222,11111222' 
LOOP,urn:ioos:station:wmo:lopl1:1,2017-03-02T18:54:00Z,28.8850,-90.0250,10.0,13.0,20.0,16.0,'11111222,11111222,11111222' 
LOOP,urn:ioos:station:wmo:lopl1:1,2017-03-02T19:54:00Z,28.8850,-90.0250,10.0,12.8,23.0,15.5,'11111222,11111222,11111222' 
LOOP,urn:ioos:station:wmo:lopl1:1,2017-03-02T20:54:00Z,28.8850,-90.0250,10.0,11.1,36.0,13.7,'11111222,11111222,11111222' 
LOOP,urn:ioos:station:wmo:lopl1:1,2017-03-02T21:54:00Z,28.8850,-90.0250,10.0,10.4,29.0,13.2,'11111222,11111222,11111222' 
LOOP,urn:ioos:station:wmo:lopl1:1,2017-03-02T22:54:00Z,28.8850,-90.0250,10.0,9.4,27.0,12.2,'11111222,11111222,11111222' 
LOOP,urn:ioos:station:wmo:lopl1:1,2017-03-02T23:54:00Z,28.8850,-90.0250,10.0,11.3,26.0,13.4,'11111222,11111222,11111222' 
LOOP,urn:ioos:station:wmo:lopl1:1,2017-03-03T00:54:00Z,28.8850,-90.0250,10.0,12.1,21.0,13.7,'11111222,11111222,11111222' 
LOOP,urn:ioos:station:wmo:lopl1:1,2017-03-03T01:54:00Z,28.8850,-90.0250,10.0,11.5,25.0,13.6,'11111222,11111222,11111222' 
LOOP,urn:ioos:station:wmo:lopl1:1,2017-03-03T02:54:00Z,28.8850,-90.0250,10.0,12.9,29.0,15.9,'11111222,11111222,11111222' 
LOOP,urn:ioos:station:wmo:lopl1:1,2017-03-03T03:54:00Z,28.8850,-90.0250,10.0,13.1,23.0,15.7,'11111222,11111222,11111222' 
LOOP,urn:ioos:station:wmo:lopl1:1,2017-03-03T04:54:00Z,28.8850,-90.0250,10.0,12.8,23.0,15.2,'11111222,11111222,11111222' 
LOOP,urn:ioos:station:wmo:lopl1:1,2017-03-03T05:54:00Z,28.8850,-90.0250,10.0,12.6,19.0,15.0,'11111222,11111222,11111222' 
LOOP,urn:ioos:station:wmo:lopl1:1,2017-03-03T06:54:00Z,28.8850,-90.0250,10.0,12.6,30.0,14.6,'11111222,11111222,11111222' 
LOOP,urn:ioos:station:wmo:lopl1:1,2017-03-03T07:54:00Z,28.8850,-90.0250,10.0,13.0,24.0,15.1,'11111222,11111222,11111222' 
LOOP,urn:ioos:station:wmo:lopl1:1,2017-03-03T08:54:00Z,28.8850,-90.0250,10.0,12.5,29.0,14.5,'11111222,11111222,11111222' 
LOOP,urn:ioos:station:wmo:lopl1:1,2017-03-03T09:55:00Z,28.8850,-90.0250,10.0,13.4,28.0,15.6,'11111222,11111222,11111222' 
LOOP,urn:ioos:station:wmo:lopl1:1,2017-03-03T10:55:00Z,28.8850,-90.0250,10.0,12.4,44.0,16.4,'11111222,11111222,11111222' 
LOOP,urn:ioos:station:wmo:lopl1:1,2017-03-03T11:55:00Z,28.8850,-90.0250,10.0,11.5,50.0,14.2,'11111222,11111222,11111222' 
LOOP,urn:ioos:station:wmo:lopl1:1,2017-03-03T13:00:00Z,28.8850,-90.0250,10.0,11.1,36.0,16.4,'11111222,11111222,11111222' 
LOOP,urn:ioos:station:wmo:lopl1:1,2017-03-03T14:00:00Z,28.8850,-90.0250,10.0,12.6,53.0,15.3,'11111222,11111222,11111222' 
LOOP,urn:ioos:station:wmo:lopl1:1,2017-03-03T15:00:00Z,28.8850,-90.0250,10.0,10.7,49.0,14.0,'11111222,11111222,11111222' 
LOOP,urn:ioos:station:wmo:lopl1:1,2017-03-03T16:00:00Z,28.8850,-90.0250,10.0,10.8,64.0,14.5,'11111222,11111222,11111222' 
LOOP,urn:ioos:station:wmo:lopl1:1,2017-03-03T17:00:00Z,28.8850,-90.0250,10.0,10.2,61.0,12.9,'11111222,11111222,11111222' 
LOOP,urn:ioos:station:wmo:lopl1:1,2017-03-03T18:00:00Z,28.8850,-90.0250,10.0,10.9,64.0,13.0,'11111222,11111222,11111222' 
LOOP,urn:ioos:station:wmo:lopl1:1,2017-03-03T19:00:00Z,28.8850,-90.0250,10.0,11.6,70.0,13.9,'11111222,11111222,11111222' 
LOOP,urn:ioos:station:wmo:lopl1:1,2017-03-03T20:00:00Z,28.8850,-90.0250,10.0,10.8,42.0,14.2,'11111222,11111222,11111222' 
LOOP,urn:ioos:station:wmo:lopl1:1,2017-03-03T21:00:00Z,28.8850,-90.0250,10.0,10.9,44.0,12.9,'11111222,11111222,11111222' 
LOOP,urn:ioos:station:wmo:lopl1:1,2017-03-03T22:00:00Z,28.8850,-90.0250,10.0,10.3,71.0,12.4,'11111222,11111222,11111222' 
LOOP,urn:ioos:station:wmo:lopl1:1,2017-03-03T23:00:00Z,28.8850,-90.0250,10.0,9.1,57.0,11.9,'11111222,11111222,11111222' 
LOOP,urn:ioos:station:wmo:lopl1:1,2017-03-04T00:00:00Z,28.8850,-90.0250,10.0,8.9,64.0,10.7,'11111222,11111222,11111222' 
LOOP,urn:ioos:station:wmo:lopl1:1,2017-03-04T01:00:00Z,28.8850,-90.0250,10.0,8.1,65.0,10.0,'11111222,11111222,11111222' 
LOOP,urn:ioos:station:wmo:lopl1:1,2017-03-04T02:00:00Z,28.8850,-90.0250,10.0,8.3,72.0,9.4,'11111222,11111222,11111222' 
LOOP,urn:ioos:station:wmo:lopl1:1,2017-03-04T03:05:00Z,28.8850,-90.0250,10.0,7.9,83.0,8.6,'11111222,11111222,11111222' 
LOOP,urn:ioos:station:wmo:lopl1:1,2017-03-04T04:05:00Z,28.8850,-90.0250,10.0,8.2,87.0,9.1,'11111222,11111222,11111222' 
LOOP,urn:ioos:station:wmo:lopl1:1,2017-03-04T05:05:00Z,28.8850,-90.0250,10.0,8.6,80.0,10.6,'11111222,11111222,11111222' 
LOOP,urn:ioos:station:wmo:lopl1:1,2017-03-04T06:05:00Z,28.8850,-90.0250,10.0,8.5,63.0,9.5,'11111222,11111222,11111222' 
LOOP,urn:ioos:station:wmo:lopl1:1,2017-03-04T07:05:00Z,28.8850,-90.0250,10.0,9.1,70.0,11.2,'11111222,11111222,11111222' 
LOOP,urn:ioos:station:wmo:lopl1:1,2017-03-04T08:05:00Z,28.8850,-90.0250,10.0,11.4,67.0,13.6,'11111222,11111222,11111222' 
LOOP,urn:ioos:station:wmo:lopl1:1,2017-03-04T09:05:00Z,28.8850,-90.0250,10.0,11.1,73.0,12.8,'11111222,11111222,11111222' 
LOOP,urn:ioos:station:wmo:lopl1:1,2017-03-04T10:05:00Z,28.8850,-90.0250,10.0,10.9,62.0,13.0,'11111222,11111222,11111222' 
LOOP,urn:ioos:station:wmo:lopl1:1,2017-03-04T11:05:00Z,28.8850,-90.0250,10.0,12.2,72.0,13.8,'11111222,11111222,11111222' 
LOOP,urn:ioos:station:wmo:lopl1:1,2017-03-04T12:05:00Z,28.8850,-90.0250,10.0,11.2,62.0,12.7,'11111222,11111222,11111222' 
LOOP,urn:ioos:station:wmo:lopl1:1,2017-03-04T13:05:00Z,28.8850,-90.0250,10.0,11.0,79.0,12.6,'11111222,11111222,11111222' 
LOOP,urn:ioos:station:wmo:lopl1:1,2017-03-04T14:05:00Z,28.8850,-90.0250,10.0,10.0,71.0,11.1,'11111222,11111222,11111222' 
LOOP,urn:ioos:station:wmo:lopl1:1,2017-03-04T15:10:00Z,28.8850,-90.0250,10.0,9.7,80.0,11.9,'11111222,11111222,11111222' 
LOOP,urn:ioos:station:wmo:lopl1:1,2017-03-04T16:10:00Z,28.8850,-90.0250,10.0,9.6,95.0,11.1,'11111222,11111222,11111222' 
LOOP,urn:ioos:station:wmo:lopl1:1,2017-03-04T17:10:00Z,28.8850,-90.0250,10.0,9.9,91.0,11.7,'11111222,11111222,11111222' 
LOOP,urn:ioos:station:wmo:lopl1:1,2017-03-04T18:10:00Z,28.8850,-90.0250,10.0,10.6,91.0,11.9,'11111222,11111222,11111222' 
LOOP,urn:ioos:station:wmo:lopl1:1,2017-03-04T19:10:00Z,28.8850,-90.0250,10.0,10.1,93.0,11.0,'11111222,11111222,11111222' 
LOOP,urn:ioos:station:wmo:lopl1:1,2017-03-04T20:10:00Z,28.8850,-90.0250,10.0,10.3,103.0,11.5,'11111222,11111222,11111222' 
LOOP,urn:ioos:station:wmo:lopl1:1,2017-03-04T21:10:00Z,28.8850,-90.0250,10.0,9.4,102.0,10.6,'11111222,11111222,11111222' 
LOOP,urn:ioos:station:wmo:lopl1:1,2017-03-04T22:10:00Z,28.8850,-90.0250,10.0,9.4,90.0,10.6,'11111222,11111222,11111222' 
LOOP,urn:ioos:station:wmo:lopl1:1,2017-03-04T23:10:00Z,28.8850,-90.0250,10.0,10.9,85.0,12.3,'11111222,11111222,11111222' 
LOOP,urn:ioos:station:wmo:lopl1:1,2017-03-05T00:10:00Z,28.8850,-90.0250,10.0,10.1,103.0,11.6,'11111222,11111222,11111222' 
LOOP,urn:ioos:station:wmo:lopl1:1,2017-03-05T01:10:00Z,28.8850,-90.0250,10.0,9.9,89.0,11.6,'11111222,11111222,11111222' 
LOOP,urn:ioos:station:wmo:lopl1:1,2017-03-05T02:10:00Z,28.8850,-90.0250,10.0,10.2,86.0,11.5,'11111222,11111222,11111222' 
LOOP,urn:ioos:station:wmo:lopl1:1,2017-03-05T03:10:00Z,28.8850,-90.0250,10.0,9.2,80.0,10.4,'11111222,11111222,11111222' 
LOOP,urn:ioos:station:wmo:lopl1:1,2017-03-05T04:10:00Z,28.8850,-90.0250,10.0,8.3,108.0,9.5,'11111222,11111222,11111222' 
LOOP,urn:ioos:station:wmo:lopl1:1,2017-03-05T05:10:00Z,28.8850,-90.0250,10.0,9.4,111.0,10.5,'11111222,11111222,11111222' 
LOOP,urn:ioos:station:wmo:lopl1:1,2017-03-05T06:10:00Z,28.8850,-90.0250,10.0,9.9,108.0,11.2,'11111222,11111222,11111222' 
LOOP,urn:ioos:station:wmo:lopl1:1,2017-03-05T07:15:00Z,28.8850,-90.0250,10.0,9.6,124.0,10.8,'11111222,11111222,11111222' 
LOOP,urn:ioos:station:wmo:lopl1:1,2017-03-05T08:15:00Z,28.8850,-90.0250,10.0,10.0,120.0,11.2,'11111222,11111222,11111222' 
LOOP,urn:ioos:station:wmo:lopl1:1,2017-03-05T09:15:00Z,28.8850,-90.0250,10.0,10.3,131.0,10.9,'11111222,11111222,11111222' 
LOOP,urn:ioos:station:wmo:lopl1:1,2017-03-05T10:15:00Z,28.8850,-90.0250,10.0,10.5,136.0,11.7,'11111222,11111222,11111222' 
LOOP,urn:ioos:station:wmo:lopl1:1,2017-03-05T11:15:00Z,28.8850,-90.0250,10.0,10.4,126.0,12.0,'11111222,11111222,11111222' 
LOOP,urn:ioos:station:wmo:lopl1:1,2017-03-05T12:15:00Z,28.8850,-90.0250,10.0,9.7,139.0,11.0,'11111222,11111222,11111222' 
LOOP,urn:ioos:station:wmo:lopl1:1,2017-03-05T13:15:00Z,28.8850,-90.0250,10.0,9.7,131.0,11.2,'11111222,11111222,11111222' 
LOOP,urn:ioos:station:wmo:lopl1:1,2017-03-05T14:15:00Z,28.8850,-90.0250,10.0,9.5,135.0,10.4,'11111222,11111222,11111222' 
LOOP,urn:ioos:station:wmo:lopl1:1,2017-03-05T15:15:00Z,28.8850,-90.0250,10.0,8.3,142.0,9.2,'11111222,11111222,11111222' 
LOOP,urn:ioos:station:wmo:lopl1:1,2017-03-05T16:16:00Z,28.8850,-90.0250,10.0,7.6,143.0,8.3,'11111222,11111222,11111222' 
LOOP,urn:ioos:station:wmo:lopl1:1,2017-03-05T17:16:00Z,28.8850,-90.0250,10.0,7.1,146.0,7.9,'11111222,11111222,11111222' 
LOOP,urn:ioos:station:wmo:lopl1:1,2017-03-05T18:16:00Z,28.8850,-90.0250,10.0,7.1,132.0,9.6,'11111222,11111222,11111222' 
LOOP,urn:ioos:station:wmo:lopl1:1,2017-03-05T19:16:00Z,28.8850,-90.0250,10.0,11.5,140.0,12.5,'11111222,11111222,11111222' 
LOOP,urn:ioos:station:wmo:lopl1:1,2017-03-05T20:21:00Z,28.8850,-90.0250,10.0,12.1,140.0,13.3,'11111222,11111222,11111222' 
LOOP,urn:ioos:station:wmo:lopl1:1,2017-03-05T21:21:00Z,28.8850,-90.0250,10.0,11.2,133.0,12.6,'11111222,11111222,11111222' 
LOOP,urn:ioos:station:wmo:lopl1:1,2017-03-05T22:21:00Z,28.8850,-90.0250,10.0,10.8,131.0,12.7,'11111222,11111222,11111222' 
LOOP,urn:ioos:station:wmo:lopl1:1,2017-03-05T23:21:00Z,28.8850,-90.0250,10.0,10.7,129.0,12.3,'11111222,11111222,11111222' 
LOOP,urn:ioos:station:wmo:lopl1:1,2017-03-06T00:21:00Z,28.8850,-90.0250,10.0,11.0,141.0,11.9,'11111222,11111222,11111222' 
LOOP,urn:ioos:station:wmo:lopl1:1,2017-03-06T01:21:00Z,28.8850,-90.0250,10.0,9.5,129.0,10.4,'11111222,11111222,11111222' 
LOOP,urn:ioos:station:wmo:lopl1:1,2017-03-06T02:21:00Z,28.8850,-90.0250,10.0,12.8,148.0,14.5,'11111222,11111222,11111222' 
LOOP,urn:ioos:station:wmo:lopl1:1,2017-03-06T03:21:00Z,28.8850,-90.0250,10.0,10.7,149.0,11.8,'11111222,11111222,11111222' 
LOOP,urn:ioos:station:wmo:lopl1:1,2017-03-06T04:21:00Z,28.8850,-90.0250,10.0,11.6,154.0,12.9,'11111222,11111222,11111222' 
LOOP,urn:ioos:station:wmo:lopl1:1,2017-03-06T05:21:00Z,28.8850,-90.0250,10.0,11.5,153.0,12.5,'11111222,11111222,11111222' 
LOOP,urn:ioos:station:wmo:lopl1:1,2017-03-06T06:21:00Z,28.8850,-90.0250,10.0,12.1,157.0,13.6,'11111222,11111222,11111222' 
LOOP,urn:ioos:station:wmo:lopl1:1,2017-03-06T07:26:00Z,28.8850,-90.0250,10.0,11.7,153.0,12.8,'11111222,11111222,11111222' 
LOOP,urn:ioos:station:wmo:lopl1:1,2017-03-06T08:26:00Z,28.8850,-90.0250,10.0,12.2,159.0,13.9,'11111222,11111222,11111222' 
LOOP,urn:ioos:station:wmo:lopl1:1,2017-03-06T09:26:00Z,28.8850,-90.0250,10.0,11.4,156.0,12.9,'11111222,11111222,11111222' 
LOOP,urn:ioos:station:wmo:lopl1:1,2017-03-06T10:26:00Z,28.8850,-90.0250,10.0,11.3,157.0,12.7,'11111222,11111222,11111222' 
LOOP,urn:ioos:station:wmo:lopl1:1,2017-03-06T11:26:00Z,28.8850,-90.0250,10.0,10.1,150.0,10.8,'11111222,11111222,11111222' 
LOOP,urn:ioos:station:wmo:lopl1:1,2017-03-06T12:26:00Z,28.8850,-90.0250,10.0,10.4,143.0,11.7,'11111222,11111222,11111222' 
LOOP,urn:ioos:station:wmo:lopl1:1,2017-03-06T13:26:00Z,28.8850,-90.0250,10.0,10.8,145.0,12.2,'11111222,11111222,11111222' 
LOOP,urn:ioos:station:wmo:lopl1:1,2017-03-06T14:26:00Z,28.8850,-90.0250,10.0,12.0,156.0,13.1,'11111222,11111222,11111222' 
LOOP,urn:ioos:station:wmo:lopl1:1,2017-03-06T15:26:00Z,28.8850,-90.0250,10.0,12.5,148.0,13.9,'11111222,11111222,11111222' 
LOOP,urn:ioos:station:wmo:lopl1:1,2017-03-06T16:26:00Z,28.8850,-90.0250,10.0,11.7,149.0,13.3,'11111222,11111222,11111222' 
LOOP,urn:ioos:station:wmo:lopl1:1,2017-03-06T17:26:00Z,28.8850,-90.0250,10.0,10.9,150.0,12.9,'11111222,11111222,11111222' 
LOOP,urn:ioos:station:wmo:lopl1:1,2017-03-06T18:26:00Z,28.8850,-90.0250,10.0,11.5,140.0,12.8,'11111222,11111222,11111222' 
LOOP,urn:ioos:station:wmo:lopl1:1,2017-03-06T19:26:00Z,28.8850,-90.0250,10.0,11.6,142.0,12.8,'11111222,11111222,11111222' 
LOOP,urn:ioos:station:wmo:lopl1:1,2017-03-06T20:26:00Z,28.8850,-90.0250,10.0,11.3,143.0,12.5,'11111222,11111222,11111222' 
LOOP,urn:ioos:station:wmo:lopl1:1,2017-03-06T21:26:00Z,28.8850,-90.0250,10.0,10.6,141.0,11.6,'11111222,11111222,11111222' 
LOOP,urn:ioos:station:wmo:lopl1:1,2017-03-06T22:31:00Z,28.8850,-90.0250,10.0,11.1,138.0,12.7,'11111222,11111222,11111222' 
LOOP,urn:ioos:station:wmo:lopl1:1,2017-03-06T23:31:00Z,28.8850,-90.0250,10.0,12.1,138.0,13.4,'11111222,11111222,11111222' 
LOOP,urn:ioos:station:wmo:lopl1:1,2017-03-07T00:31:00Z,28.8850,-90.0250,10.0,11.8,140.0,12.9,'11111222,11111222,11111222' 
LOOP,urn:ioos:station:wmo:lopl1:1,2017-03-07T01:31:00Z,28.8850,-90.0250,10.0,12.7,141.0,13.7,'11111222,11111222,11111222' 
LOOP,urn:ioos:station:wmo:lopl1:1,2017-03-07T02:31:00Z,28.8850,-90.0250,10.0,12.5,148.0,13.6,'11111222,11111222,11111222' 
LOOP,urn:ioos:station:wmo:lopl1:1,2017-03-07T03:31:00Z,28.8850,-90.0250,10.0,12.7,151.0,14.3,'11111222,11111222,11111222' 
LOOP,urn:ioos:station:wmo:lopl1:1,2017-03-07T04:31:00Z,28.8850,-90.0250,10.0,12.3,150.0,13.6,'11111222,11111222,11111222' 
LOOP,urn:ioos:station:wmo:lopl1:1,2017-03-07T05:31:00Z,28.8850,-90.0250,10.0,13.6,155.0,15.6,'11111222,11111222,11111222' 
LOOP,urn:ioos:station:wmo:lopl1:1,2017-03-07T06:31:00Z,28.8850,-90.0250,10.0,13.1,155.0,14.8,'11111222,11111222,11111222' 
LOOP,urn:ioos:station:wmo:lopl1:1,2017-03-07T07:31:00Z,28.8850,-90.0250,10.0,14.2,162.0,16.5,'11111222,11111222,11111222' 
LOOP,urn:ioos:station:wmo:lopl1:1,2017-03-07T08:31:00Z,28.8850,-90.0250,10.0,9.3,145.0,11.6,'11111222,11111222,11111222' 
LOOP,urn:ioos:station:wmo:lopl1:1,2017-03-07T09:31:00Z,28.8850,-90.0250,10.0,12.1,157.0,13.8,'11111222,11111222,11111222' 
LOOP,urn:ioos:station:wmo:lopl1:1,2017-03-07T10:36:00Z,28.8850,-90.0250,10.0,10.7,168.0,12.3,'11111222,11111222,11111222' 
LOOP,urn:ioos:station:wmo:lopl1:1,2017-03-07T11:36:00Z,28.8850,-90.0250,10.0,11.2,158.0,12.3,'11111222,11111222,11111222' 
LOOP,urn:ioos:station:wmo:lopl1:1,2017-03-07T12:36:00Z,28.8850,-90.0250,10.0,12.3,163.0,13.7,'11111222,11111222,11111222' 
LOOP,urn:ioos:station:wmo:lopl1:1,2017-03-07T13:36:00Z,28.8850,-90.0250,10.0,10.5,164.0,12.5,'11111222,11111222,11111222' 
LOOP,urn:ioos:station:wmo:lopl1:1,2017-03-07T14:36:00Z,28.8850,-90.0250,10.0,8.7,168.0,10.1,'11111222,11111222,11111222' 
LOOP,urn:ioos:station:wmo:lopl1:1,2017-03-07T15:36:00Z,28.8850,-90.0250,10.0,8.8,175.0,9.8,'11111222,11111222,11111222' 
LOOP,urn:ioos:station:wmo:lopl1:1,2017-03-07T16:36:00Z,28.8850,-90.0250,10.0,8.2,164.0,9.3,'11111222,11111222,11111222' 
LOOP,urn:ioos:station:wmo:lopl1:1,2017-03-07T17:51:00Z,28.8850,-90.0250,10.0,7.5,159.0,8.9,'11111222,11111222,11111222' 
LOOP,urn:ioos:station:wmo:lopl1:1,2017-03-07T18:51:00Z,28.8850,-90.0250,10.0,4.2,165.0,6.6,'11111222,11111222,11111222' 
LOOP,urn:ioos:station:wmo:lopl1:1,2017-03-07T19:51:00Z,28.8850,-90.0250,10.0,4.5,172.0,7.2,'11111222,11111222,11111222' 
LOOP,urn:ioos:station:wmo:lopl1:1,2017-03-07T20:51:00Z,28.8850,-90.0250,10.0,4.6,-9999.0,7.1,'11111222,99999999,11111222' 
LOOP,urn:ioos:station:wmo:lopl1:1,2017-03-07T21:51:00Z,28.8850,-90.0250,10.0,5.2,-9999.0,6.7,'11111222,99999999,11111222' 
LOOP,urn:ioos:station:wmo:lopl1:1,2017-03-07T22:56:00Z,28.8850,-90.0250,10.0,5.4,-9999.0,7.1,'11111222,99999999,11111222' 
LOOP,urn:ioos:station:wmo:lopl1:1,2017-03-07T23:56:00Z,28.8850,-90.0250,10.0,3.9,-9999.0,6.1,'11111222,99999999,11111222' 
LOOP,urn:ioos:station:wmo:lopl1:1,2017-03-08T00:56:00Z,28.8850,-90.0250,10.0,4.1,-9999.0,5.7,'11111222,99999999,11111222' 
LOOP,urn:ioos:station:wmo:lopl1:1,2017-03-08T01:56:00Z,28.8850,-90.0250,10.0,3.4,-9999.0,4.5,'11111222,99999999,11111222' 
LOOP,urn:ioos:station:wmo:lopl1:1,2017-03-08T02:56:00Z,28.8850,-90.0250,10.0,4.5,-9999.0,7.1,'11111222,99999999,11111222' 
LOOP,urn:ioos:station:wmo:lopl1:1,2017-03-08T03:56:00Z,28.8850,-90.0250,10.0,4.6,-9999.0,6.2,'11111222,99999999,11111222' 
LOOP,urn:ioos:station:wmo:lopl1:1,2017-03-08T04:56:00Z,28.8850,-90.0250,10.0,6.0,-9999.0,7.2,'11111222,99999999,11111222' 
LOOP,urn:ioos:station:wmo:lopl1:1,2017-03-08T05:56:00Z,28.8850,-90.0250,10.0,6.8,32.0,8.2,'11111222,11111222,11111222' 
LOOP,urn:ioos:station:wmo:lopl1:1,2017-03-08T06:56:00Z,28.8850,-90.0250,10.0,5.2,79.0,5.7,'11111222,11111222,11111222' 
LOOP,urn:ioos:station:wmo:lopl1:1,2017-03-08T07:56:00Z,28.8850,-90.0250,10.0,6.9,23.0,8.5,'11111222,11111222,11111222' 
LOOP,urn:ioos:station:wmo:lopl1:1,2017-03-08T08:56:00Z,28.8850,-90.0250,10.0,4.0,52.0,5.1,'11111222,11111222,11111222' 
LOOP,urn:ioos:station:wmo:lopl1:1,2017-03-08T09:56:00Z,28.8850,-90.0250,10.0,3.6,57.0,4.6,'11111222,11111222,11111222' 
LOOP,urn:ioos:station:wmo:lopl1:1,2017-03-08T11:01:00Z,28.8850,-90.0250,10.0,5.1,129.0,5.9,'11111222,11111222,11111222' 
LOOP,urn:ioos:station:wmo:lopl1:1,2017-03-08T12:01:00Z,28.8850,-90.0250,10.0,4.8,131.0,5.1,'11111222,11111222,11111222' 
LOOP,urn:ioos:station:wmo:lopl1:1,2017-03-08T13:01:00Z,28.8850,-90.0250,10.0,3.2,20.0,3.8,'11111222,11111222,11111222' 
LOOP,urn:ioos:station:wmo:lopl1:1,2017-03-08T14:06:00Z,28.8850,-90.0250,10.0,7.3,47.0,8.5,'11111222,11111222,11111222' 
LOOP,urn:ioos:station:wmo:lopl1:1,2017-03-08T15:06:00Z,28.8850,-90.0250,10.0,5.7,35.0,7.5,'11111222,11111222,11111222' 
LOOP,urn:ioos:station:wmo:lopl1:1,2017-03-08T16:06:00Z,28.8850,-90.0250,10.0,5.2,61.0,6.9,'11111222,11111222,11111222' 
LOOP,urn:ioos:station:wmo:lopl1:1,2017-03-08T17:06:00Z,28.8850,-90.0250,10.0,5.5,33.0,7.3,'11111222,11111222,11111222' 
LOOP,urn:ioos:station:wmo:lopl1:1,2017-03-08T18:06:00Z,28.8850,-90.0250,10.0,7.6,36.0,9.5,'11111222,11111222,11111222' 
LOOP,urn:ioos:station:wmo:lopl1:1,2017-03-08T19:06:00Z,28.8850,-90.0250,10.0,7.6,44.0,9.2,'11111222,11111222,11111222' 
LOOP,urn:ioos:station:wmo:lopl1:1,2017-03-08T20:06:00Z,28.8850,-90.0250,10.0,7.7,49.0,9.4,'11111222,11111222,11111222' 
LOOP,urn:ioos:station:wmo:lopl1:1,2017-03-08T21:06:00Z,28.8850,-90.0250,10.0,8.5,63.0,10.2,'11111222,11111222,11111222' 
LOOP,urn:ioos:station:wmo:lopl1:1,2017-03-08T22:06:00Z,28.8850,-90.0250,10.0,8.0,74.0,9.3,'11111222,11111222,11111222' 
LOOP,urn:ioos:station:wmo:lopl1:1,2017-03-08T23:06:00Z,28.8850,-90.0250,10.0,8.1,75.0,8.9,'11111222,11111222,11111222' 
LOOP,urn:ioos:station:wmo:lopl1:1,2017-03-09T00:06:00Z,28.8850,-90.0250,10.0,7.0,77.0,7.8,'11111222,11111222,11111222' 
LOOP,urn:ioos:station:wmo:lopl1:1,2017-03-09T01:06:00Z,28.8850,-90.0250,10.0,6.6,68.0,7.4,'11111222,11111222,11111222' 
LOOP,urn:ioos:station:wmo:lopl1:1,2017-03-09T02:06:00Z,28.8850,-90.0250,10.0,6.6,76.0,7.1,'11111222,11111222,11111222' 